TimePST,TemperatureF,Dew PointF,Humidity,Sea Level PressureIn,VisibilityMPH,Wind Direction,Wind SpeedMPH,Gust SpeedMPH,PrecipitationIn,Events,Conditions,WindDirDegrees,DateUTC
12:53 AM,24.1,21.0,88,30.50,10.0,Calm,Calm,-,N/A,,Overcast,0,2013-01-14 08:53:00
1:53 AM,25.0,21.9,88,30.49,10.0,Calm,Calm,-,N/A,,Overcast,0,2013-01-14 09:53:00
2:53 AM,25.0,21.9,88,30.49,8.0,North,3.5,-,N/A,,Overcast,350,2013-01-14 10:53:00
3:53 AM,25.0,23.0,92,30.47,8.0,Calm,Calm,-,N/A,,Overcast,0,2013-01-14 11:53:00
4:53 AM,25.0,23.0,92,30.45,8.0,Calm,Calm,-,N/A,,Overcast,0,2013-01-14 12:53:00
5:53 AM,25.0,23.0,92,30.45,8.0,Calm,Calm,-,N/A,,Overcast,0,2013-01-14 13:53:00
6:53 AM,26.1,24.1,92,30.45,7.0,Calm,Calm,-,N/A,,Overcast,0,2013-01-14 14:53:00
7:53 AM,26.1,24.1,92,30.45,6.0,Calm,Calm,-,N/A,,Overcast,0,2013-01-14 15:53:00
8:53 AM,28.0,24.1,85,30.43,8.0,SW,4.6,-,N/A,,Overcast,220,2013-01-14 16:53:00
9:53 AM,28.9,23.0,78,30.41,10.0,Calm,Calm,-,N/A,,Overcast,0,2013-01-14 17:53:00
10:53 AM,30.0,23.0,75,30.41,10.0,Calm,Calm,-,N/A,,Overcast,0,2013-01-14 18:53:00
11:53 AM,30.9,23.0,72,30.40,10.0,Calm,Calm,-,N/A,,Overcast,0,2013-01-14 19:53:00
12:53 PM,34.0,24.1,67,30.37,10.0,WNW,3.5,-,N/A,,Clear,300,2013-01-14 20:53:00
1:53 PM,36.0,24.1,62,30.40,10.0,North,4.6,-,N/A,,Clear,350,2013-01-14 21:53:00
2:53 PM,35.1,25.0,67,30.42,10.0,NW,4.6,-,N/A,,Clear,320,2013-01-14 22:53:00
3:53 PM,32.0,25.0,75,30.42,10.0,North,3.5,-,N/A,,Clear,350,2013-01-14 23:53:00
4:53 PM,28.9,25.0,85,30.45,10.0,NW,3.5,-,N/A,,Clear,320,2013-01-15 00:53:00
5:53 PM,28.0,24.1,85,30.46,10.0,NW,6.9,-,N/A,,Clear,310,2013-01-15 01:53:00
6:53 PM,27.0,23.0,85,30.48,10.0,Calm,Calm,-,N/A,,Clear,0,2013-01-15 02:53:00
7:53 PM,27.0,23.0,85,30.49,10.0,Calm,Calm,-,N/A,,Clear,0,2013-01-15 03:53:00
8:53 PM,27.0,23.0,85,30.50,10.0,Calm,Calm,-,N/A,,Clear,0,2013-01-15 04:53:00
9:53 PM,24.1,21.9,91,30.51,7.0,NW,4.6,-,N/A,,Clear,310,2013-01-15 05:53:00
10:53 PM,24.1,21.9,91,30.53,7.0,North,4.6,-,N/A,,Clear,360,2013-01-15 06:53:00
11:53 PM,23.0,21.0,92,30.54,7.0,North,3.5,-,N/A,,Clear,360,2013-01-15 07:53:00